DW8004 Weather Reports


Display with metric or nautical units.
time (UTC)temp
F
wind
direction
speed
MPH
gust
MPH
rain 1hr
in
rain 24hr
in
rain mn
in
humidity
%
barometer
mb
20260505200007 74 69 0.0 0.0 0.00 0.01 0.01 43 1002.9
20260505194555 74 327 0.0 0.0 0.00 0.01 0.01 44 1003.2
20260505193102 74 5 0.0 0.0 0.00 0.01 0.01 45 1003.2
20260505191605 74 142 0.0 0.0 0.00 0.01 0.01 44 1003.4
20260505190119 74 128 0.0 0.0 0.00 0.01 0.01 43 1003.6
20260505184609 74 87 0.0 0.0 0.00 0.01 0.01 43 1003.5
20260505183053 75 16 0.0 0.0 0.00 0.01 0.01 43 1003.6
20260505181502 74 36 0.0 0.0 0.00 0.01 0.01 44 1004.0
20260505180100 74 57 0.0 0.0 0.00 0.01 0.01 43 1004.4
20260505174556 74 30 0.0 0.0 0.00 0.01 0.01 43 1004.6
20260505173046 75 308 0.0 0.0 0.00 0.01 0.01 45 1004.6
20260505171538 74 246 0.0 0.0 0.00 0.01 0.01 45 1004.6
20260505170011 74 16 0.0 0.0 0.00 0.01 0.01 43 1004.8
20260505164604 74 294 0.0 0.0 0.00 0.01 0.01 46 1004.8
20260505163107 73 119 0.0 0.0 0.00 0.01 0.01 46 1005.3
20260505161542 71 47 0.0 0.0 0.00 0.01 0.01 49 1005.7
20260505153005 70 246 0.0 0.0 0.00 0.01 0.01 53 1006.3
20260505151558 69 344 0.0 0.0 0.00 0.01 0.01 54 1006.4
20260505150136 69 39 0.0 0.0 0.00 0.01 0.01 54 1006.6
20260505124532 60 37 0.0 0.0 0.00 0.01 0.01 70 1007.3
20260505123010 58 355 0.0 0.0 0.00 0.01 0.01 74 1007.3
20260505121533 57 65 0.0 0.0 0.00 0.01 0.01 74 1007.3
20260505120104 56 107 0.0 0.0 0.01 0.01 0.01 85 1007.5
20260505114527 53 154 0.0 0.0 0.01 0.01 0.01 90 1007.7
20260505113007 52 246 0.0 0.0 0.01 0.01 0.01 89 1007.6
20260505111604 52 261 0.0 0.0 0.01 0.01 0.01 85 1007.4
20260505101518 48 78 0.0 0.0 0.00 0.00 0.00 82 1007.2
20260505100139 49 78 0.0 0.0 0.00 0.00 0.00 80 1007.0
20260505094611 49 78 0.0 0.0 0.00 0.00 0.00 80 1007.1
20260505093048 50 78 0.0 0.0 0.00 0.00 0.00 79 1007.1
20260505091548 50 78 0.0 0.0 0.00 0.00 0.00 77 1006.9
20260505090138 51 78 0.0 0.0 0.00 0.00 0.00 75 1007.0
20260505084551 52 78 0.0 0.0 0.00 0.00 0.00 72 1007.3
20260505083041 54 78 0.0 0.0 0.00 0.00 0.00 67 1007.3
20260505081524 56 65 0.0 0.0 0.00 0.00 0.00 63 1007.2
20260505080107 56 66 0.0 0.0 0.00 0.00 0.00 62 1007.2
20260505074504 57 73 0.0 0.0 0.00 0.00 0.00 61 1007.1
20260505073100 57 51 0.0 0.0 0.00 0.00 0.00 60 1007.1
20260505071538 57 81 0.0 0.0 0.00 0.00 0.00 59 1007.1